Orbital Elements at Epoch 2459200.5 (2020-Dec-17.0) TDB
Reference: JPL 18 (heliocentric ecliptic J2000)
Element | Value | Uncertainty (1-sigma) | Units |
e | .2797148038645875 | 9.8279e-08 | |
a | 2.597350936045238 | 2.6166e-08 | au |
q | 1.870833428401842 | 2.7185e-07 | au |
i | 11.36140059810761 | 5.2789e-06 | deg |
node | 195.2286395356438 | 2.4262e-05 | deg |
peri | 311.9603859398363 | 2.6998e-05 | deg |
M | 37.31359156986659 | 1.3751e-05 | deg |
tp | 2459042.025668563428 (2020-Jul-11.52566856) | 5.6688e-05 | TDB |
period | 1528.953845419656 4.19 | 2.3104e-05 6.326e-08 | d yr |
n | .2354551127089058 | 3.558e-09 | deg/d |
Q | 3.323868443688634 | 3.3485e-08 | au |
|
| | Orbit Determination Parameters
Additional Information
|